COSMOS 1891

导读

**COSMOS 1891卫星摘要** COSMOS 1891于1987年10月14日由独联体(CIS,继承苏联航天遗产)发射升空,隶属于苏联著名的“宇宙”(COSMOS)卫星系列。作为冷战末期苏联航天活动的产物,该卫星承担军用航天任务,具体功能细节未完全公开,推测主要服务于军事侦察、电子情报监测或技术试验领域,运行于近地轨道。它是美苏太空竞赛背景下,苏联维持空间军事存在的典型见证,体现了当时苏联航天技术发展水平。随着任务完成,最终再入大气层销毁。

基本信息
目录编号:
18402
目录名称:
COSMOS 1891
国际标识:
1987-087A
轨道中心:
EARTH
卫星名称:
COSMOS 1891
卫星全名:
--
卫星状态:
在轨 (已飞行14121 天)
发射日期:
1987-10-14 UTC
国别 :
俄罗斯(独联体) (CIS)
星等 :
--
轨道信息
数据来源 国际轨道数据 AOE轨道数据
星历时间 2026-06-12T13:32:39+0800
14小时前
查看轨道信息
2026-06-12T00:00:00+0800
1天前
查看轨道信息
半长轴 7363.628km 7363.628km
偏心率 0.0050511 0.0050387
轨道倾角 82.922° 82.923°
近地点辐角 170.798° 172.414°
升交点赤经 218.580° 218.997°
平近点角 189.411° 278.079°
近地点 948.296km 948.387km
远地点 1022.686km 1022.595km
周期 104.809分钟 104.809分钟
每日圈数 13.739315 13.739313
详细信息
使用方式:
暂无
2D轨道图
3D轨道图
轨道高度分析图
轨道倾角分析图
轨道综合分析图
查看轨道综合分析图